Hourly Data Report for June 13, 2020

BORDEN AWOS
ONTARIO
Current Station Operator: DND

44°16'20.000" N
79°54'42.000" W
222.50 m
611B002
71534
YBN

Download Data

Hourly Data (June 2020)
Hourly Data Report for June 13, 2020
TIME
LST
Temp Definition
°C
Dew Point Definition
°C
Rel Hum Definition
%
Precip. Amount Definition
mm

Wind Dir Definition
10's deg

Wind Spd Definition
km/h
Visibility Definition
km
Stn Press Definition
kPa
Hmdx Definition


Wind Chill Definition


Weather Definition


00:00 4.4 3.8 96     0 14.5 99.83     LegendNANA
01:00 5.1 4.6 97   31 4 14.5 99.87     LegendNANA
02:00 5.1 4.5 96     0 14.5 99.88     LegendNANA
03:00 4.8 4.4 97     0 14.5 99.88     LegendNANA
04:00 3.6 2.8 95     0 14.5 99.91     LegendNANA
05:00 2.6 2.3 98     0 14.5 99.95     LegendNANA
06:00 5.6 5.4 99     0 14.5 99.98     LegendNANA
07:00 10.1 6.7 79   35 9 14.5 100.02     LegendNANA
08:00 11.7 6.4 70   35 7 14.5 100.06     LegendNANA
09:00 13.2 2.7 49   34 17 14.5 100.09     LegendNANA
10:00 13.5 3.4 50   34 9 14.5 100.08     LegendNANA
11:00 14.8 5.6 54   30 13 14.5 100.10     LegendNANA
12:00 14.4 4.3 51   33 17 14.5 100.08     LegendNANA
13:00 15.3 4.3 48   36 20 14.5 100.05     LegendNANA
14:00 16.2 4.8 47   32 9 14.5 100.04     LegendNANA
15:00 16.7 3.9 43   30 15 14.5 100.02     LegendNANA
16:00 16.3 2.9 41   33 17 14.5 100.00     LegendNANA
17:00 15.4 0.5 36   34 15 14.5 100.02     LegendNANA
18:00 15.0 1.0 39   34 11 14.5 100.04     LegendNANA
19:00 13.6 1.1 43   36 7 14.5 100.08     LegendNANA
20:00 10.8 2.0 55   35 7 14.5 100.09     LegendNANA
21:00 8.5 2.6 66   35 4 14.5 100.14     LegendNANA
22:00 6.3 3.3 81   27 4 14.5 100.17     LegendNANA
23:00 4.7 2.9 88   32 4 14.5 100.17     LegendNANA

Notes on Data Quality.

Legend

  • E = Estimated
  • M = Missing
  • NA = Not Available*
  • [empty] = Indicates an unobserved value
Date modified: